Weather History for Lordsburg, NM

Change the Weather History Date:

Tuesday, March 26, 2013

  Actual Average Record
Temperature  
Mean Temperature 56 °F -  
Max Temperature 71 °F 72 °F 73 °F (2014)
Min Temperature 41 °F 35 °F 37 °F (2014)
Degree Days  
Heating Degree Days 9    
Growing Degree Days 6 (Base 50)    
Moisture  
Dew Point 11 °F    
Average Humidity 18    
Maximum Humidity 29    
Minimum Humidity 10    
Precipitation  
Precipitation 0.00 in - - ()
Sea Level Pressure  
Sea Level Pressure 30.08 in    
Wind  
Wind Speed 12 mph (SE)    
Max Wind Speed 25 mph    
Max Gust Speed 32 mph    
Visibility 10 miles    
Events      
Averages and records for this station are not official NWS values.
T = Trace of Precipitation, MM = Missing Value Source: NWS Daily Summary

Daily Weather History Graph

Daily Weather History Graph

Search for Another Location

Airport:

Trip Planner

Search our weather history database for the weather conditions in past years. The results will help you decide how hot, cold, wet, or windy it might be!

Date:

Astronomy

Mar. 26, 2013 Rise Set
Actual Time 7:10 AM MDT 7:30 PM MDT
Civil Twilight 6:45 AM MDT 7:55 PM MDT
Nautical Twilight 6:17 AM MDT 8:24 PM MDT
Astronomical Twilight 5:47 AM MDT 8:53 PM MDT
Moon 7:09 PM MDT (3/26) 6:27 AM MDT (3/26)
Length of Visible Light 13h 09m
Length of Day
12h 20m
Waxing Gibbous, 99% of the Moon is Illuminated
Mar 26
Waxing Gibbous
Mar 27
Full
Apr 2
Last Quarter
Apr 10
New
Apr 18
First Quarter

Hourly Weather History & Observations

Time (MDT) Temp. Windchill Dew Point Humidity Pressure Visibility Wind Dir Wind Speed Gust Speed Precip Events Conditions
12:15 AM 44.6 °F 39.7 °F 3.2 °F 18% 30.12 in 10.0 mi SE 9.2 mph - N/A   Clear
12:35 AM 44.6 °F 39.7 °F 3.2 °F 18% 30.13 in 10.0 mi SE 9.2 mph - N/A   Clear
12:55 AM 44.6 °F 39.2 °F 3.2 °F 18% 30.13 in 10.0 mi SE 10.4 mph - N/A   Clear
1:15 AM 44.6 °F 39.2 °F 5.0 °F 20% 30.13 in 10.0 mi SE 10.4 mph - N/A   Clear
1:35 AM 44.6 °F 39.2 °F 5.0 °F 20% 30.13 in 10.0 mi SE 10.4 mph - N/A   Clear
1:55 AM 44.6 °F 39.7 °F 5.0 °F 20% 30.13 in 10.0 mi SE 9.2 mph - N/A   Clear
2:15 AM 42.8 °F 37.0 °F 5.0 °F 21% 30.12 in 10.0 mi SE 10.4 mph - N/A   Clear
2:35 AM 44.6 °F 39.2 °F 5.0 °F 20% 30.12 in 10.0 mi SE 10.4 mph - N/A   Clear
2:55 AM 44.6 °F 38.1 °F 6.8 °F 21% 30.12 in 10.0 mi SE 13.8 mph - N/A   Clear
3:15 AM 44.6 °F 38.8 °F 8.6 °F 23% 30.12 in 10.0 mi SE 11.5 mph - N/A   Clear
3:35 AM 44.6 °F 39.2 °F 6.8 °F 21% 30.11 in 10.0 mi SSE 10.4 mph - N/A   Clear
3:55 AM 42.8 °F 36.6 °F 6.8 °F 23% 30.11 in 10.0 mi SSE 11.5 mph - N/A   Clear
4:15 AM 42.8 °F 36.2 °F 6.8 °F 23% 30.11 in 10.0 mi SSE 12.7 mph - N/A   Clear
4:35 AM 42.8 °F 35.8 °F 6.8 °F 23% 30.11 in 10.0 mi SSE 13.8 mph - N/A   Clear
4:55 AM 42.8 °F 35.8 °F 8.6 °F 25% 30.11 in 10.0 mi SE 13.8 mph - N/A   Clear
5:15 AM 42.8 °F 36.6 °F 8.6 °F 25% 30.11 in 10.0 mi SSE 11.5 mph 18.4 mph N/A   Clear
5:35 AM 41.0 °F 33.9 °F 8.6 °F 26% 30.11 in 10.0 mi SE 12.7 mph - N/A   Clear
5:55 AM 42.8 °F 36.2 °F 8.6 °F 25% 30.12 in 10.0 mi SE 12.7 mph - N/A   Clear
6:15 AM 41.0 °F 34.3 °F 8.6 °F 26% 30.12 in 10.0 mi SSE 11.5 mph - N/A   Clear
6:35 AM 41.0 °F 33.9 °F 8.6 °F 26% 30.13 in 10.0 mi SSE 12.7 mph - N/A   Clear
6:55 AM 41.0 °F 33.9 °F 10.4 °F 29% 30.14 in 10.0 mi SSE 12.7 mph - N/A   Clear
7:15 AM 41.0 °F 33.1 °F 10.4 °F 29% 30.14 in 10.0 mi SE 15.0 mph 19.6 mph N/A   Clear
7:35 AM 41.0 °F 33.9 °F 10.4 °F 29% 30.14 in 10.0 mi SE 12.7 mph - N/A   Clear
7:55 AM 44.6 °F 37.8 °F 10.4 °F 25% 30.14 in 10.0 mi SE 15.0 mph 24.2 mph N/A   Clear
8:15 AM 46.4 °F 40.1 °F 10.4 °F 23% 30.15 in 10.0 mi SE 15.0 mph 24.2 mph N/A   Clear
8:35 AM 46.4 °F 38.7 °F 10.4 °F 23% 30.16 in 10.0 mi ESE 20.7 mph 28.8 mph N/A   Clear
8:55 AM 48.2 °F - 12.2 °F 24% 30.16 in 10.0 mi ESE 24.2 mph 28.8 mph N/A   Clear
9:15 AM 48.2 °F - 12.2 °F 24% 30.18 in 10.0 mi ESE 20.7 mph 29.9 mph N/A   Clear
9:35 AM 50.0 °F - 12.2 °F 22% 30.17 in 10.0 mi ESE 25.3 mph 29.9 mph N/A   Clear
9:55 AM 51.8 °F - 12.2 °F 21% 30.17 in 10.0 mi ESE 20.7 mph 29.9 mph N/A   Clear
10:15 AM 51.8 °F - 12.2 °F 21% 30.17 in 10.0 mi ESE 24.2 mph 32.2 mph N/A   Clear
10:35 AM 53.6 °F - 12.2 °F 19% 30.17 in 10.0 mi ESE 19.6 mph 32.2 mph N/A   Clear
10:55 AM 55.4 °F - 12.2 °F 18% 30.17 in 10.0 mi SE 20.7 mph 32.2 mph N/A   Clear
11:15 AM 57.2 °F - 14.0 °F 18% 30.16 in 10.0 mi ESE 20.7 mph 28.8 mph N/A   Clear
11:35 AM 57.2 °F - 12.2 °F 17% 30.16 in 10.0 mi ESE 23.0 mph 29.9 mph N/A   Clear
11:55 AM 60.8 °F - 14.0 °F 16% 30.15 in 10.0 mi SE 20.7 mph 29.9 mph N/A   Clear
12:15 PM 59.0 °F - 14.0 °F 17% 30.15 in 10.0 mi ESE 20.7 mph 28.8 mph N/A   Clear
12:35 PM 60.8 °F - 14.0 °F 16% 30.14 in 10.0 mi ESE 19.6 mph 25.3 mph N/A   Clear
12:55 PM 62.6 °F - 14.0 °F 15% 30.14 in 10.0 mi SE 20.7 mph 26.5 mph N/A   Clear
1:15 PM 64.4 °F - 14.0 °F 14% 30.12 in 10.0 mi ESE 17.3 mph 25.3 mph N/A   Clear
1:35 PM 64.4 °F - 14.0 °F 14% 30.11 in 10.0 mi ESE 16.1 mph 27.6 mph N/A   Clear
1:55 PM 66.2 °F - 14.0 °F 13% 30.10 in 10.0 mi SE 19.6 mph 25.3 mph N/A   Clear
2:15 PM 66.2 °F - 14.0 °F 13% 30.09 in 10.0 mi SE 17.3 mph 25.3 mph N/A   Clear
2:35 PM 66.2 °F - 14.0 °F 13% 30.08 in 10.0 mi ESE 19.6 mph 25.3 mph N/A   Clear
2:55 PM 68.0 °F - 14.0 °F 12% 30.06 in 10.0 mi ESE 18.4 mph 23.0 mph N/A   Clear
3:15 PM 69.8 °F - 14.0 °F 12% 30.06 in 10.0 mi ESE 12.7 mph 20.7 mph N/A   Clear
3:35 PM 69.8 °F - 14.0 °F 12% 30.04 in 10.0 mi SE 13.8 mph 20.7 mph N/A   Clear
3:55 PM 71.6 °F - 14.0 °F 11% 30.03 in 10.0 mi ESE 11.5 mph 23.0 mph N/A   Clear
4:15 PM 71.6 °F - 14.0 °F 11% 30.02 in 10.0 mi SSE 10.4 mph - N/A   Clear
4:35 PM 69.8 °F - 12.2 °F 11% 30.01 in 10.0 mi ESE 3.5 mph - N/A   Clear
4:55 PM 71.6 °F - 14.0 °F 11% 30.00 in 10.0 mi East 9.2 mph - N/A   Clear
5:15 PM 71.6 °F - 14.0 °F 11% 29.99 in 10.0 mi North - - N/A   Clear
5:35 PM 71.6 °F - 12.2 °F 10% 29.99 in 10.0 mi East 4.6 mph - N/A   Clear
5:55 PM 71.6 °F - 12.2 °F 10% 29.98 in 10.0 mi SE 3.5 mph - N/A   Clear
6:15 PM 69.8 °F - 12.2 °F 11% 29.98 in 10.0 mi ESE 6.9 mph - N/A   Clear
6:35 PM 69.8 °F - 12.2 °F 11% 29.98 in 10.0 mi East 5.8 mph - N/A   Clear
6:55 PM 69.8 °F - 12.2 °F 11% 29.98 in 10.0 mi East 6.9 mph - N/A   Clear
7:15 PM 68.0 °F - 12.2 °F 12% 29.97 in 10.0 mi East 8.1 mph - N/A   Clear
7:35 PM 66.2 °F - 12.2 °F 12% 29.97 in 10.0 mi North - - N/A   Clear
7:55 PM 62.6 °F - 12.2 °F 14% 29.97 in 10.0 mi ESE 6.9 mph - N/A   Clear
8:15 PM 59.0 °F - 10.4 °F 15% 29.98 in 10.0 mi ESE 4.6 mph - N/A   Clear
8:35 PM 59.0 °F - 10.4 °F 15% 29.98 in 10.0 mi SE 4.6 mph - N/A   Clear
8:55 PM 55.4 °F - 10.4 °F 17% 29.99 in 10.0 mi SE 5.8 mph - N/A   Clear
9:15 PM 53.6 °F - 10.4 °F 18% 29.99 in 10.0 mi SSE 6.9 mph - N/A   Clear
9:35 PM 55.4 °F - 12.2 °F 18% 29.99 in 10.0 mi SE 8.1 mph - N/A   Clear
9:55 PM 55.4 °F - 12.2 °F 18% 30.00 in 10.0 mi SE 9.2 mph - N/A   Clear
10:15 PM 53.6 °F - 10.4 °F 18% 30.00 in 10.0 mi South 9.2 mph - N/A   Clear
10:35 PM 53.6 °F - 12.2 °F 19% 30.00 in 10.0 mi SSE 9.2 mph - N/A   Clear
10:55 PM 55.4 °F - 12.2 °F 18% 30.01 in 10.0 mi SSE 11.5 mph - N/A   Clear
11:15 PM 55.4 °F - 12.2 °F 18% 30.01 in 10.0 mi SE 15.0 mph - N/A   Clear
11:35 PM 55.4 °F - 12.2 °F 18% 30.02 in 10.0 mi SSE 9.2 mph - N/A   Clear
11:55 PM 53.6 °F - 12.2 °F 19% 30.02 in 10.0 mi SSE 9.2 mph - N/A   Clear